Location: Bilsen
(53.7722°N, 9.8765°E)
Time: 03:13:29
(UTC+00:00)

Cosmos 2084 Rocket - Pass Details

Date: 18 February 2020
Orbit: 566 x 615 km, 62.8° (Epoch: 09 April)

Event Time Altitude Azimuth Distance (km) Brightness Sun altitude
Exits shadow 05:50:54 - 311° (NW) 2,372 6.0 -7.1°
Reaches altitude 10° 05:51:57 10° 315° (NW) 1,971 5.6 -6.9°
Maximum altitude 05:56:15 45° 28° (NNE) 848 4.4 -6.3°
Drops below altitude 10° 06:00:33 10° 101° (ESE) 1,977 8.1 -5.7°
Sets 06:02:55 0° 108° (ESE) 2,881 9.7 -5.4°
